     2              OBSERVATION DATA    GPS                 RINEX VERSION / TYPE
TRRINEXO V1.7 IGPP 24-SEP-91 01:38                          PGM / RUN BY / DATE
                                                            COMMENT
Rinex conversion of GPS Trimble data                        COMMENT
Original Marker Name: GUA1                                  COMMENT
Campaign Name: Guadalupe Island 1991                        COMMENT
4-Character Station Name: GUA1                              COMMENT
6-Character Antenna Code: TRMSST                            COMMENT
Vertical Measurement Point: BGP                             COMMENT
Vertical Offset to Rinex Ref. Point: 0.0597                 COMMENT
Radial Measurement Point: NGP                               COMMENT
Radial Offset to Rinex Ref. Point: 0.2334                   COMMENT
Antenna Height from Field Measurement: 1.2300 m             COMMENT
Additional Antenna Identification Info.:                    COMMENT
Model 14532.00                                              COMMENT
Original XYZ: -2648782.5766 -4921529.2397 3062788.3204      COMMENT
New XYZ position is based on association with SCEC monument COMMENT
D5S5Z3N7+0011. Position of that monument is believed to be  COMMENT
valid to within 1 m horizontally; vertical accuracy         COMMENT
should be no worse than 3-times this value.                 COMMENT
                                                            COMMENT
Revised Rinex header created by UCSD GPS archive for        COMMENT
GSAC on 01-Dec-2001 (2001:335) 00:27:57 GMT                 COMMENT
For assistance contact dagnew@ucsd.edu                      COMMENT
or anderson@python.ucsd.edu                                 COMMENT
                                                            COMMENT
UNKNOWN                                                     MARKER NAME
JG SCRIPPS INSTITUTION OF OCEANOGRAPHY                      OBSERVER / AGENCY
496 TRIMBLE 4000 SST 4.11                                   REC # / TYPE / VERS
38 TR 4000SST L1/L2 GEO                                     ANT # / TYPE
 -2648786.5996 -4921527.4371  3062786.3360                  APPROX POSITION XYZ
        1.1480        0.0000        0.0000                  ANTENNA: DELTA H/E/N
     1     2     0                                          WAVELENGTH FACT L1/2
     3    C1    L1    L2                                    # / TYPES OF OBSERV
     0                                                      INTERVAL
  1991     3    13     1    34   40.000000                  TIME OF FIRST OBS
  1991     3    13     1    56    6.000000                  TIME OF LAST OBS
                                                            END OF HEADER
 91  3 13  1 34 40.0000000  0  5  2  6 13 15 19
  21043250.586           -.365 7
  21731395.461           -.37617
  22984630.445           -.64116
  24146973.375           -.17615
  22720339.594           -.06315
 91  3 13  1 34 41.0000000  0  5  2  6 13 15 19
  21043062.469        -988.775 7
  21730841.320       -2909.407 7
  22983699.727       -4877.883 6
  24146554.195       -2223.457 5
  22720505.445         869.000 5
 91  3 13  1 34 42.0000000  0  5  2  6 13 15 19
  21042873.547       -1978.104 7
  21730287.414       -5819.427 7
  22982774.781       -9755.953 6
  24146128.516       -4447.391 5
  22720672.961        1737.265 5
 91  3 13  1 34 43.0000000  0  5  2  6 13 15 19
  21042685.977       -2967.137 7
  21729734.438       -8729.256 7
  22981845.391      -14633.649 6
  24145705.242       -6670.781 5
  22720838.805        2605.933 5
 91  3 13  1 34 44.0000000  0  5  2  6 13 15 19
  21042496.898       -3955.937 7
  21729181.992      -11638.931 7
  22980918.922      -19511.031 6
  24145279.906       -8893.676 5
  22721004.633        3474.957 5
 91  3 13  1 34 45.0000000  0  5  2  6 13 15 19
  21042308.594       -4944.538 7
  21728628.125      -14548.474 7
  22979988.266      -24388.138 6
  24144858.922      -11116.119 5
  22721166.820        4344.282 5
 91  3 13  1 34 46.0000000  0  5  2  6 13 15 19
  21042120.156       -5932.845 7
  21728074.172      -17457.803 7
  22979062.984      -29264.867 6
  24144436.242      -13338.007 5
  22721333.352        5214.020 5
 91  3 13  1 34 47.0000000  0  5  2  6 13 15 19
  21041931.578       -6919.889 7
  21727519.828      -20365.957 7
  22978132.078      -34140.247 6
  24144008.344      -15558.379 5
  22721501.516        6085.136 5
 91  3 13  1 34 48.0000000  0  5  2  6 13 15 19
  21041744.367       -7904.459 7
  21726965.555      -23271.721 7
  22977205.883      -39013.067 6
  24143591.469      -17776.013 5
  22721667.180        6958.844 5
 91  3 13  1 34 49.0000000  0  5  2  6 13 15 19
  21041556.094       -8888.779 7
  21726413.719      -26177.323 7
  22976280.078      -43885.555 6
  24143163.602      -19993.141 5
  22721834.922        7832.917 5
 91  3 13  1 34 50.0000000  0  5  2  6 13 15 19
  21041369.180       -9872.830 7
  21725861.641      -29082.737 7
  22975353.352      -48757.687 6
  24142748.211      -22209.742 5
  22721996.266        8707.371 5
 91  3 13  1 34 51.0000000  0  5  2  6 13 15 19
  21041181.570      -10856.528 7
  21725308.578      -31987.884 7
  22974424.414      -53629.390 6
  24142324.844      -24425.720 5
  22722164.125        9582.300 5
 91  3 13  1 34 52.0000000  0  5  2  6 13 15 19
  21040995.547      -11839.908 7
  21724756.203      -34892.797 7
  22973496.641      -58500.697 6
  24141904.727      -26641.117 5
  22722330.914       10457.651 6
 91  3 13  1 34 53.0000000  0  5  2  6 13 15 19
  21040807.938      -12823.026 7
  21724202.953      -37797.529 7
  22972570.289      -63371.660 5
  24141479.531      -28855.998 5
  22722498.563       11333.384 6
 91  3 13  1 34 54.0000000  0  5  2  6 13 15 19
  21040621.938      -13805.847 7
  21723650.281      -40702.058 7
  22971642.492      -68242.241 6
  24141060.438      -31070.300 5
  22722665.352       12209.536 5
 91  3 13  1 34 55.0000000  0  5  2  6 13 15 19
  21040435.219      -14788.142 7
  21723098.102      -43606.137 7
  22970717.008      -73112.215 6
  24140640.273      -33283.841 5
  22722834.492       13086.313 5
 91  3 13  1 34 56.0000000  0  5  2  6 13 15 19
  21040247.852      -15770.227 7
  21722544.516      -46510.083 7
  22969790.055      -77981.894 6
  24140220.703      -35496.905 5
  22722999.125       13963.417 5
 91  3 13  1 34 57.0000000  0  5  2  6 13 15 19
  21040060.828      -16752.541 7
  21721991.953      -49414.337 7
  22968861.547      -82851.722 5
  24139800.516      -37709.944 5
  22723164.680       14840.420 5
 91  3 13  1 34 58.0000000  0  5  2  6 13 15 19
  21039873.531      -17734.738 7
  21721439.602      -52318.561 7
  22967935.586      -87721.349 5
  24139374.563      -39922.605 5
  22723330.414       15717.644 5
